User: anonymous   Login
Location: Unspecified
(0.0000°N, 0.0000°E)
Time: 21:21:06
(UTC+00:00)
Language:

deb r/b Ablestar - Orbit

View from above orbital plane
View from above orbital plane
View from above satellite
View from above satellite

Ground track
Ground track

The orbit data is extracted from the following two-line orbital elements,

1 00335U 61015DM  14296.09905693  .00001788  00000-0  95020-3 0  3231
2 00335 066.8423 180.9810 0035294 072.5337 043.9919 14.15472289724404
Epoch (UTC): 23 October 2014 02:22:38
Eccentricity: 0.0035294
inclination: 66.8423°
perigee height: 815 km
apogee height: 866 km
right ascension of ascending node: 180.9810°
argument of perigee: 72.5337°
revolutions per day: 14.15472289
mean anomaly at epoch: 43.9919°
orbit number at epoch: 72440

The dashed part of the orbit path shows where the satellite is in the earth's shadow,  

DLR